Probability
0 0 0 0 0 0 0 0 0 0 0 0 0 0 0 0 0 0 0 0 0 0 0 0 0 0 0 0 0 0 0 0 0 0 0 0 0 0 0 0 0 0 0
0 0 0 0 0 0 0 0 0 0 0 0 0 0 0 0 0 0 0 0 0 0 0 0 0 0 0 0 0 0 0 0 0 0 0 0 0 0 0 0 0 0 0
0 0 0 0 0 0 0 0 0 0 0 0 0 0 0 0 0 0 0 0 0 0 0 0 0 0 0 0 0 0 0 0 0 0 0 0 0 0 0 0 0 0 0
0 0 0 0 0 0 0 0 0 0 0 0 0 0 0 0 0 0 0 0 0 0 0 0 0 0 0 0 0 0 0 0 0 0 0 0 0 0 0 0 0 0 0
0 0 0 0 0 0 0 0 0 0 0 0 0 0 0 0 0 0 0 0 0 0 0 0 0 0 0 0 0 0 0 0 0 0 0 0 0 0 0 0 0 0 0
0 0 0 0 0 0 0 0 0 0 0 0 0 0 0 0 0 0 0 0 0 0 0 0 0 0 0 0 0 0 0 0 0 0 0 0 0 0 0 0 0 0 0
0 0 0 0 0 0 0 0 0 0 0 0 0 0 0 0 0 0 0 0 0 0 0 0 0 0 0 0 0 0 0 0 0 0 0 0 0 0 0 0 0 0 0
0 0 0 0 0 0 0 0 0 0 0 0 0 0 0 0 0 0 0 0 0 0 0 0 0 0 0 0 0 0 0 0 0 0 0 0 0 0 0 0 0 0 0
0 0 0 0 0 0 0 0 0 0 0 0 0 0 0 0 0 0 0 0 0 0 0 0 0 0 0 0 0 0 0 0 0 0 0 0 0 0 0 0 0 0 0
0 0 0 0 0 0 0 0 0 0 0 0 0 0 0 0 0 0 0 0 0 0 0 0 0 0 0 0 0 0 0 0 0 0 0 0 0 0 0 0 0 0 0
0 0 0 0 0 0 0 0 0 0 0 0 0 0 0 0 0 0 0 0 0 0 0 0 0 0 0 0 0 0 0 0 0 0 0 0 0 0 0 0 0 0 0
0 0 0 0 0 0 0 0 0 0 0 0 0 0 0 0 0 0 0 0 0 0 0 0 0 0 0 0 0 0 0 0 0 0 0 0 0 0 0 0 0 0 0
0 0 0 0 0 0 0 0 0 0 0 0 0 0 0 0 0 0 0 0 0 0 0 0 0 0 0 0 0 0 0 0 0 0 0 0 0 0 0 0 0 0 0
0 0 0 0 0 0 0 0 0 0 0 0 0 0 0 0 0 0 0 0 0 0 0 0 0 0 0 0 0 0 0 0 0 0 0 0 0 0 0 0 0 0 0
0 0 0 0 0 0 0 0 0 0 0 0 0 0 0 0 0 0 0 0 0 0 0 0 0 0 0 0 0 0 0 0 0 0 0 0 0 0 0 0 0 0 0
0 0 0 0 0 0 0 0 0 0 0 0 0 0 0 0 0 0 0 0 0 0 0 0 0 0 0 0 0 0 0 0 0 0 0 0 0 0 0 0 0 0 0
0 0 0 0 0 0 0 0 0 0 0 0 0 0 0 0 0 0 0 0 0 0 0 0 0 0 0 0 0 0 0 0 0 0 0 0 0 0 0 0 0 0 0
0 0 0 0 0 0 0 0 0 0 0 0 0 0 0 0 0 0 0 0 0 0 0 0 0 0 0 0 0 0 0 0 0 0 0 0 0 0 0 0 0 0 0
0 0 0 0 0 0 0 0 0 0 0 0 0 0 0 0 0 0 0 0 0 0 0 0 0 0 0 0 0 0 0 0 0 0 0 0 0 0 0 0 0 0 0
0 0 0 0 0 0 0 0 0 0 0 0 0 0 0 0 0 0 0 0 0 0 0 0 0 0 0 0 0 0 0 0 0 0 0 0 0 0 0 0 0 0 0
0 0 0 0 0 0 0 0 0 0 0 0 0 0 0 0 0 0 0 0 0 0 0 0 0 0 0 0 0 0 0 0 0 0 0 0 0 0 0 0 0 0 0
0 0 0 0 0 0 0 0 0 0 0 0 0 0 0 0 0 0 0 0 0 0 0 0 0 0 0 0 0 0 0 0 0 0 0 0 0 0 0 0 0 0 0
0 0 0 0 0 0 0 0 0 0 0 0 0 0 0 0 0 0 0 0 0 0 0 0 0 0 0 0 0 0 0 0 0 0 0 0 0 0 0 0 0 0 0
0 0 0 0 0 0 0 0 0 0 0 0 0 0 0 0 0 0 0 0 0 0 0 0 0 0 0 0 0 0 0 0 0 0 0 0 0 0 0 0 0 0 0
0 0 0 0 0 0 0 0 0 0 0 0 0 0 0 0 0 0 0 0 0 0 0 0 0 0 0 0 0 0 0 0 0 0 0 0 0 0 0 0 0 0 0
0 0 0 0 0 0 0 0 0 0 0 0 0 0 0 0 0 0 0 0 0 0 0 0 0 0 0 0 0 0 0 0 0 0 0 0 0 0 0 0 0 0 0
Wind_Speed
8 8 9 7 7 8 7 7 6 5 5 4 3 3 2 2 2 2 2 3 3 3 4 4 4 4 4 4 4 4 4 4 9 7 4 5 6 8 10 8 8 8 10
8 8 8 8 8 8 7 6 6 5 4 4 4 4 4 5 6 5 5 5 4 4 5 5 6 5 5 5 4 5 5 6 7 11 6 5 7 8 8 9 10 10 7
8 9 9 9 8 8 7 6 6 5 5 5 5 6 6 6 6 5 4 3 4 4 5 5 6 6 6 6 6 6 6 7 6 7 8 6 6 7 7 9 10 8 10
9 10 9 8 8 7 7 7 6 6 5 5 6 6 6 5 4 4 3 3 4 5 5 6 7 7 7 7 7 7 6 7 7 7 8 7 7 7 6 7 8 7 8
10 10 8 7 7 7 7 6 6 6 5 5 6 5 4 3 2 3 3 4 5 6 7 7 7 11 12 9 8 7 6 6 7 7 8 8 8 7 7 6 8 8 9
9 8 7 7 7 7 6 5 5 5 5 5 5 3 2 2 2 4 5 4 5 6 8 8 9 9 12 15 17 16 13 10 9 8 8 9 9 8 7 7 8 8 6
8 7 7 6 6 6 5 5 5 5 5 4 3 2 1 2 3 5 9 6 6 6 7 7 8 9 11 8 12 15 14 16 15 11 9 9 8 7 8 9 8 9 8
7 6 5 5 5 5 5 5 4 3 3 2 2 1 1 3 4 6 10 6 6 7 7 8 8 8 8 9 9 10 9 9 10 7 6 8 8 7 7 7 8 8 7
5 4 4 4 5 4 4 3 2 2 2 1 1 1 2 3 5 7 9 5 6 8 8 8 8 7 10 11 9 9 9 8 9 9 9 9 10 9 7 5 5 5 5
4 3 3 4 4 4 3 2 2 2 1 2 2 3 2 3 5 8 10 4 6 7 7 7 9 9 12 12 7 7 8 8 8 8 7 7 6 6 7 5 4 5 4
3 3 3 3 3 3 3 2 3 3 3 3 4 4 4 4 6 10 11 5 6 7 7 6 6 11 13 12 9 6 8 9 7 6 5 5 4 4 4 4 4 3 4
3 3 3 3 3 4 4 3 4 4 4 4 4 4 4 4 6 10 14 12 10 6 6 6 7 12 13 12 8 8 11 8 4 4 4 4 4 4 4 4 4 3 3
2 3 3 3 3 4 4 4 3 3 3 3 3 3 4 5 6 11 13 14 14 7 6 10 11 12 10 7 8 10 8 4 4 4 4 3 3 4 4 4 4 3 3
3 3 3 3 3 3 3 3 3 2 2 2 3 4 4 5 5 7 7 8 10 8 6 8 10 9 7 7 7 6 4 4 4 4 4 3 3 3 3 3 3 4 3
3 3 3 3 3 2 2 2 2 1 2 1 1 3 4 5 7 12 8 6 6 7 6 4 4 5 6 5 5 5 5 5 5 4 3 3 3 4 4 4 4 4 4
3 3 2 2 2 2 2 1 1 2 2 0 2 4 4 6 11 12 13 11 12 12 6 4 5 5 5 5 5 5 5 5 5 4 3 3 4 4 4 4 4 5 5
3 2 2 2 2 2 2 2 1 2 3 3 5 7 7 9 11 12 13 11 10 10 5 5 5 5 5 6 5 5 5 6 5 4 3 3 3 4 4 5 5 5 6
3 3 3 2 2 2 2 2 1 1 1 3 4 7 9 9 10 12 12 9 6 7 5 5 5 6 6 6 6 6 6 6 5 5 4 3 3 3 4 4 5 6 6
2 2 2 2 2 2 2 2 2 2 1 2 3 5 8 8 8 9 9 5 5 5 6 6 6 6 6 6 6 6 6 6 6 5 3 2 2 3 3 3 4 7 6
1 3 3 2 2 2 3 3 2 2 1 2 3 4 5 5 4 6 5 5 5 5 5 6 6 6 6 6 6 6 6 6 7 5 4 3 1 1 2 2 3 3 4
1 2 4 3 2 3 3 2 2 2 1 2 2 4 6 4 4 5 5 5 5 5 5 6 5 6 6 6 6 7 7 6 6 6 5 4 2 1 1 2 2 3 4
3 3 3 3 2 3 3 2 2 2 2 2 2 3 6 4 4 4 4 5 5 4 5 5 5 5 5 5 6 6 6 6 7 7 6 5 3 2 2 2 3 3 3
4 4 4 3 3 4 3 2 2 2 2 1 2 3 4 4 4 4 4 5 5 5 5 5 5 5 5 5 5 5 5 6 6 6 5 4 4 3 3 3 4 4 4
5 5 4 3 3 3 3 2 2 2 2 2 2 3 4 4 4 5 5 5 5 5 5 5 5 7 10 8 6 5 5 6 6 4 4 3 4 4 4 4 4 5 5
5 5 4 3 3 3 3 3 3 2 2 2 2 3 4 4 5 5 5 5 6 6 7 7 6 7 10 11 10 9 9 9 6 4 3 3 4 5 4 5 4 5 5
4 4 4 3 3 3 3 3 3 3 2 2 2 3 3 4 5 5 6 6 6 6 7 6 9 10 11 10 11 12 10 9 8 7 4 3 4 4 4 3 4 4 4
Wind_Direction
94 97 97 94 96 97 97 98 97 95 99 101 102 98 85 52 39 49 37 24 19 358 347 332 310 299 290 287 281 273 265 261 281 284 259 266 270 276 286 285 282 278 280
97 95 91 88 88 87 86 84 84 82 77 76 71 63 62 64 63 61 47 36 24 1 341 333 318 314 303 289 280 271 267 259 266 284 285 276 271 272 276 280 288 289 282
92 90 85 81 79 76 74 71 68 66 58 55 67 77 78 73 67 57 46 26 358 331 318 311 304 302 296 289 282 274 269 272 261 273 283 277 274 277 282 283 283 282 284
84 82 78 76 78 75 66 59 53 54 57 64 75 83 84 79 69 43 23 1 335 318 306 297 291 288 281 281 282 275 274 275 272 273 280 282 279 277 275 282 289 282 283
84 82 77 71 66 63 60 56 54 57 66 75 85 92 93 83 60 32 0 344 326 316 310 302 298 305 308 307 304 291 282 277 277 276 279 282 283 286 283 279 284 287 281
80 77 74 68 65 65 62 57 58 57 63 74 81 84 72 57 13 2 355 330 317 311 308 307 307 307 313 317 314 310 304 295 290 282 281 281 283 282 283 283 286 289 286
78 74 71 70 67 65 69 63 63 64 69 74 73 73 55 294 318 339 344 337 314 305 301 302 309 311 315 308 310 312 309 304 297 289 284 283 285 287 289 289 286 286 283
79 74 73 76 76 73 73 68 65 69 75 73 59 37 332 299 311 331 336 333 310 302 299 296 298 305 310 318 313 309 306 304 302 297 285 286 286 290 288 287 290 288 279
86 81 84 90 90 87 79 69 61 68 58 45 27 1 343 327 334 335 339 319 309 307 305 306 309 309 312 321 317 313 314 315 318 312 300 297 297 300 305 299 298 300 300
91 90 93 104 105 97 84 62 44 64 57 32 15 1 1 346 340 341 344 319 314 315 311 311 314 314 316 321 317 311 315 318 319 320 319 315 309 307 319 315 313 309 308
107 99 100 114 114 101 78 56 51 47 39 26 16 2 360 348 336 340 343 334 316 313 312 315 314 320 322 321 318 302 302 307 307 310 313 317 320 322 326 330 331 326 321
112 99 98 109 112 102 84 60 51 53 43 22 13 358 343 335 334 335 335 332 327 310 307 310 312 320 322 323 324 319 322 324 316 320 322 322 327 331 331 333 334 336 338
113 113 111 96 84 92 91 79 59 50 46 19 8 350 330 327 328 333 332 330 332 328 311 318 324 328 329 327 332 337 338 333 328 326 325 319 320 326 330 330 330 325 331
134 137 128 114 98 85 88 96 89 66 46 19 359 338 326 326 331 335 331 329 333 336 329 327 331 337 347 341 338 338 334 330 329 322 322 322 333 343 350 348 346 347 349
126 132 138 140 137 121 111 127 132 162 170 152 313 309 321 330 327 329 332 332 336 331 327 336 351 349 352 348 342 339 336 342 344 339 339 348 356 4 4 359 1 5 13
114 129 144 147 148 143 134 87 206 196 200 245 326 328 308 320 333 345 351 352 354 354 3 356 351 348 349 347 345 340 339 344 344 346 354 4 12 17 16 15 18 23 25
128 138 140 142 144 152 157 163 240 303 292 305 323 339 347 350 357 356 355 352 2 8 12 357 352 351 350 349 346 344 342 342 345 353 4 14 23 26 27 27 27 31 34
121 134 139 148 145 141 141 143 129 94 2 333 329 343 356 359 1 1 358 1 5 8 360 353 350 350 348 348 347 346 346 350 354 2 11 21 28 33 37 36 35 37 39
127 130 133 137 131 129 116 106 97 86 51 359 346 345 350 350 351 0 5 10 358 354 351 349 349 347 346 347 349 349 351 355 357 4 9 15 28 39 43 43 45 44 45
153 154 140 132 118 115 110 107 101 86 53 18 4 351 344 352 359 356 359 356 354 351 348 348 348 348 349 349 349 353 355 358 358 0 357 356 14 46 59 59 58 56 51
171 153 135 119 124 129 126 122 119 104 62 18 359 2 5 358 354 351 351 349 348 346 345 344 345 346 348 349 350 352 355 356 354 352 352 353 9 46 64 74 71 69 67
127 129 124 126 127 122 123 124 117 104 81 47 1 354 1 3 355 352 348 346 343 339 337 337 340 342 342 343 344 345 350 352 350 350 349 354 10 40 65 76 83 82 81
104 108 108 112 114 113 108 109 115 111 92 53 17 4 358 357 356 355 350 345 342 343 343 344 346 347 345 340 338 340 340 334 324 323 336 352 12 34 55 72 85 92 91
100 105 109 110 103 102 105 106 109 109 95 60 28 14 6 2 1 359 357 352 350 350 351 352 353 352 351 348 340 337 331 319 312 310 330 5 26 39 54 65 74 89 94
96 99 100 102 103 102 96 93 93 93 94 80 45 28 18 13 10 8 4 1 2 3 3 2 359 356 350 347 347 341 333 333 339 341 352 23 38 45 58 68 78 87 96
89 95 94 92 93 97 99 97 94 91 81 72 62 45 27 20 16 14 11 10 10 9 8 3 359 0 358 352 346 341 341 350 359 9 19 38 45 47 57 63 75 81 89